Location: Huberhof
(49.2050°N, 7.4980°E)
Time: 01:28:46
(UTC+00:00)

ERBS - Pass Details

Date: 29 October 2020
Orbit: 407 x 422 km, 57.0° (Epoch: 26 November)

Event Time Altitude Azimuth Distance (km) Brightness Sun altitude
Rises 18:17:31 0° 303° (WNW) 2,371 7.1 -20.8°
Reaches altitude 10° 18:19:48 10° 315° (NW) 1,509 5.7 -21.2°
Enters shadow 18:22:02 26° 353° (N) 879 3.9 -21.5°
